Location: Ebenezer
(18.2167°N, 63.0667°W)
Time: 07:23:47
(UTC+00:00)

ADEOS Rocket - Pass Details

Date: 26 January 2020
Orbit: 859 x 1306 km, 98.7° (Epoch: 21 February)

Event Time Altitude Azimuth Distance (km) Brightness Sun altitude
Rises 23:19:04 0° 6° (N) 4,024 6.0 -18.1°
Reaches altitude 10° 23:21:37 10° 3° (N) 3,116 5.5 -18.7°
Maximum altitude 23:28:45 64° 285° (WNW) 1,381 3.9 -20.4°
Drops below altitude 10° 23:36:21 10° 205° (SSW) 3,306 6.2 -22.1°
Sets 23:39:07 0° 202° (SSW) 4,284 6.8 -22.7°
